sat.trackr.live / text

‹ back to catalog

STARLINK-35096

NORAD 65479 · 2025-195X

PAYLOAD ACTIVE UNKNOWN

§ Identity

Operator
Country
US
Launch date
2025-09-03
Launch site
AFETR
Launch vehicle
Mass (kg)
RCS (m²)

Purposes: comms

External: N2YO · Heavens-Above · Gunter

§ Orbital elements

Epoch: 2026-09-20T21:39:36.235008Z

Period
94.01 min
Inclination
53.1588°
Eccentricity
0.0001431
Mean motion
15.31732406 rev/d
Perigee alt
469.7 km
Apogee alt
471.6 km
Semi-major
6,848.8 km
B*
4.1770e-4
RAAN
69.8711°
Arg perigee
89.4823°
Mean anomaly
270.6342°
Rev number
5,988

§ Raw data

STARLINK-350961 65479U 25195X   26263.90250272  .00012632  00000+0  41770-3 0  99942 65479  53.1588  69.8711 0001431  89.4823 270.6342 15.31732406 59884

JSON: /api/v1/satellites/65479 · /tle

For live sub-satellite position, see the globe view (requires WebGL).

§ Visibility from observer

Set your observer location to see the next 7 days of passes ≥ 10°. The values pass through the URL so the page stays shareable.

No JS? Fill the form by hand. The geolocation button needs JavaScript.